R/V Knorr Calliope CSV data file - KN193_II  (Time stamps are GMT)
Date, Time_GMT, Depth12, Depth35, Air_Temp, WXT5_Ta, WXT5_Pa, dec_lat, dec_lon, EDO_knt, GPS_COG, GPS_SOG, Gyro, IMET_BPR, IMET_SWR, WXT5_Ri, WXT5_Rc, HRH, WXT5_Ua, WXT5_Dm, WXT5_Sm, SBE45C, SBE45S, SBE45T, Salinity, SSCND, Fluorometer, SSTMP, SSV, Wnd_Dir, TWD_5, Wnd_Spd, TWS_5, HdChkSum=52
2008/04/18, 00:00:44, 1748.00, 0.00, -12.38, -11.70, 1005.8, 78.1863820, 4.1856870, , 262.50, 3.16, 260.80, 1006.35, 2.10, 0.0, 38.60, 81.82, 90.6, 81, 15.1, 32.17470, 34.69020, 3.8664, 34.6902, 32.1747, 70.10, 2.1783, 1458.47, 352.30, 346.2, 18.23, 17.3, 52
2008/04/18, 00:01:43, 1746.00, 0.00, -12.41, -11.80, 1005.7, 78.1858470, 4.1832870, , 215.00, 3.98, 263.20, 1006.03, 2.20, 0.0, 38.60, 81.50, 90.7, 78, 16.3, 32.14570, 34.69070, 3.8333, 34.6907, 32.1457, 69.90, 2.1760, 1458.45, 357.00, 342.5, 19.42, 17.2, 52
2008/04/18, 00:02:43, 1742.00, 0.00, -12.63, -11.90, 1005.8, 78.1853450, 4.1809770, , 223.30, 1.28, 261.60, 1006.34, 1.70, 0.0, 38.60, 81.57, 91.3, 76, 17.5, 32.15930, 34.69030, 3.8489, 34.6903, 32.1593, 69.90, 2.1735, 1458.44, 349.80, 338.7, 16.81, 18.2, 52
2008/04/18, 00:03:43, 1739.00, 0.00, -12.52, -11.80, 1006.2, 78.1848570, 4.1787470, , 216.00, 2.95, 263.30, 1006.78, 1.60, 0.0, 38.60, 81.52, 90.8, 75, 14.4, 32.13880, 34.69090, 3.8253, 34.6909, 32.1388, 70.10, 2.1714, 1458.43, 350.10, 339.4, 18.11, 15.4, 52
2008/04/18, 00:04:43, 1715.00, 0.00, -11.96, -11.50, 1005.9, 78.1843520, 4.1762720, , 226.80, 1.63, 261.60, 1006.50, 2.20, 0.0, 38.60, 81.87, 93.2, 72, 14.8, 32.13440, 34.69000, 3.8212, 34.6900, 32.1344, 69.90, 2.1687, 1458.42, 351.30, 335.8, 15.22, 14.9, 52
2008/04/18, 00:05:43, 1701.00, 0.00, -11.71, -11.10, 1005.8, 78.1838450, 4.1732700, , 226.10, 3.87, 261.40, 1006.32, 2.00, 0.0, 38.60, 82.51, 91.9, 73, 16.8, 32.12720, 34.69050, 3.8126, 34.6905, 32.1272, 69.90, 2.1665, 1458.41, 352.50, 336.7, 17.79, 17.7, 52
2008/04/18, 00:06:43, 1724.00, 0.00, -12.05, -11.30, 1006.2, 78.1833520, 4.1683530, , 246.80, 4.38, 262.20, 1007.02, 1.70, 0.0, 38.60, 82.24, 91.0, 56, 16.5, 32.12300, 34.69030, 3.8080, 34.6903, 32.1230, 69.90, 2.1639, 1458.40, 347.40, 323.8, 17.55, 15.7, 52
2008/04/18, 00:07:43, 1683.00, 0.00, -12.16, -11.60, 1005.8, 78.1828500, 4.1631150, , 222.60, 2.81, 257.80, 1006.62, 1.50, 0.0, 38.60, 81.89, 90.6, 69, 17.3, 32.11690, 34.69030, 3.8012, 34.6903, 32.1169, 69.90, 2.1617, 1458.39, 330.80, 327.8, 17.19, 16.8, 52
2008/04/18, 00:08:43, 0.00, 0.00, -12.38, -11.80, 1006.0, 78.1823230, 4.1615880, , 186.80, 1.52, 257.80, 1006.13, 1.80, 0.0, 38.60, 81.57, 90.8, 70, 16.2, 32.14260, 34.68900, 3.8313, 34.6890, 32.1426, 69.90, 2.1598, 1458.39, 336.00, 326.7, 18.68, 16.3, 52
2008/04/18, 00:09:43, 0.00, 0.00, -12.41, -11.80, 1006.1, 78.1818270, 4.1622000, , 156.10, 1.46, 261.30, 1006.54, 1.70, 0.0, 38.60, 81.55, 91.3, 72, 14.5, 32.13110, 34.68990, 3.8176, 34.6899, 32.1311, 70.10, 2.1580, 1458.38, 341.00, 328.8, 18.12, 14.9, 52
2008/04/18, 00:10:43, 1756.00, 0.00, -12.22, -11.70, 1005.8, 78.1812950, 4.1633020, , 168.90, 2.61, 261.20, 1006.48, 1.50, 0.0, 38.60, 81.69, 92.1, 82, 15.0, 32.12420, 34.69090, 3.8089, 34.6909, 32.1242, 70.10, 2.1565, 1458.37, 338.20, 337.7, 17.64, 17.0, 52
2008/04/18, 00:11:43, 1748.00, 0.00, -12.19, -11.50, 1006.0, 78.1807680, 4.1644950, , 136.40, 2.03, 262.20, 1006.78, 1.70, 0.0, 38.60, 81.82, 92.3, 64, 17.2, 32.11910, 34.69050, 3.8036, 34.6905, 32.1191, 70.10, 2.1536, 1458.36, 347.00, 324.0, 17.00, 18.4, 52
2008/04/18, 00:12:43, 1743.00, 0.00, -12.08, -11.40, 1006.2, 78.1802450, 4.1657020, , 146.40, 2.65, 263.80, 1007.04, 1.70, 0.0, 38.60, 81.97, 91.7, 67, 16.8, 32.17510, 34.69050, 3.8665, 34.6905, 32.1751, 70.10, 2.1489, 1458.34, 338.50, 329.0, 17.15, 17.1, 52
2008/04/18, 00:13:44, 1744.00, 0.00, -12.08, -11.40, 1005.7, 78.1797570, 4.1671030, , 140.60, 1.70, 260.10, 1006.56, 1.70, 0.0, 38.60, 82.19, 91.6, 75, 15.4, 32.13040, 34.69220, 3.8147, 34.6922, 32.1304, 70.40, 2.1442, 1458.32, 338.90, 331.7, 17.20, 17.0, 52
2008/04/18, 00:14:43, 1750.00, 0.00, -11.85, -11.20, 1006.0, 78.1792280, 4.1682880, , 154.90, 1.54, 261.70, 1006.98, 1.80, 0.0, 38.60, 82.16, 92.3, 66, 15.2, 32.12140, 34.69170, 3.8050, 34.6917, 32.1214, 70.40, 2.1405, 1458.30, 343.10, 326.9, 17.36, 15.8, 52
2008/04/18, 00:15:43, 1697.00, 0.00, -12.10, -11.40, 1005.9, 78.1786900, 4.1691320, , 173.30, 2.60, 263.90, 1007.25, 1.30, 0.0, 38.60, 82.09, 90.9, 73, 17.1, 32.11090, 34.69150, 3.7934, 34.6915, 32.1109, 70.40, 2.1390, 1458.29, 340.30, 336.3, 17.47, 18.7, 52
2008/04/18, 00:16:43, 1693.00, 0.00, -12.27, -11.60, 1005.8, 78.1781330, 4.1698170, , 167.40, 5.29, 261.20, 1006.53, 1.70, 0.0, 38.60, 81.69, 90.6, 67, 15.3, 32.12350, 34.69230, 3.8068, 34.6923, 32.1235, 70.80, 2.1410, 1458.30, 340.70, 323.8, 20.35, 14.8, 52
2008/04/18, 00:17:43, 1761.00, 0.00, -11.99, -11.50, 1005.8, 78.1775820, 4.1708100, , 163.00, 3.74, 264.10, 1006.59, 2.00, 0.0, 38.60, 81.82, 91.4, 67, 15.7, 32.11030, 34.69160, 3.7925, 34.6916, 32.1103, 70.40, 2.1441, 1458.32, 343.70, 326.1, 17.82, 16.1, 52
2008/04/18, 00:18:43, 1675.00, 0.00, -12.05, -11.50, 1005.9, 78.1770650, 4.1720820, , 137.10, 2.35, 261.30, 1006.56, 2.10, 0.0, 38.60, 81.87, 91.9, 68, 17.4, 32.12640, 34.69530, 3.8072, 34.6953, 32.1264, 70.80, 2.1466, 1458.33, 335.40, 325.7, 17.79, 18.6, 52
2008/04/18, 00:19:43, 0.00, 0.00, -12.24, -11.50, 1006.3, 78.1765570, 4.1732470, , 147.00, 2.48, 259.40, 1006.67, 1.80, 0.0, 38.60, 81.72, 90.8, 67, 16.9, 32.11770, 34.69430, 3.7985, 34.6943, 32.1177, 70.80, 2.1474, 1458.34, 334.70, 325.4, 18.52, 18.4, 52
2008/04/18, 00:20:43, 1659.00, 0.00, -12.02, -11.50, 1005.9, 78.1759930, 4.1745380, , 154.30, 4.02, 260.30, 1006.51, 1.80, 0.0, 38.60, 81.89, 91.4, 76, 13.4, 32.12300, 34.69250, 3.8059, 34.6925, 32.1230, 70.40, 2.1502, 1458.35, 337.90, 337.2, 18.81, 13.8, 52
2008/04/18, 00:21:43, 1643.00, 0.00, -12.13, -11.40, 1006.3, 78.1755250, 4.1762820, , 151.90, 3.47, 263.20, 1007.02, 1.90, 0.0, 38.60, 81.84, 92.0, 68, 15.1, 32.11450, 34.69260, 3.7963, 34.6926, 32.1145, 70.10, 2.1520, 1458.35, 341.80, 327.5, 16.65, 15.9, 52
2008/04/18, 00:22:43, 1628.00, 0.00, -12.24, -11.50, 1006.0, 78.1750530, 4.1776000, , 3.10, 2.49, 263.60, 1007.17, 1.70, 0.0, 38.60, 81.69, 91.2, 67, 14.2, 32.19390, 34.69420, 3.8842, 34.6942, 32.1939, 70.10, 2.1573, 1458.38, 338.40, 334.2, 14.60, 17.3, 52
2008/04/18, 00:23:43, 1596.00, 0.00, -11.99, -11.40, 1005.9, 78.1746000, 4.1800120, , 133.10, 3.03, 259.30, 1006.57, 1.70, 0.0, 38.60, 81.99, 91.5, 75, 17.2, 32.12140, 34.69260, 3.8041, 34.6926, 32.1214, 70.40, 2.1632, 1458.40, 336.10, 331.7, 17.28, 18.3, 52
2008/04/18, 00:24:43, 1597.00, 0.00, -12.33, -11.50, 1006.3, 78.1740870, 4.1815120, , 139.30, 1.76, 263.50, 1006.60, 1.60, 0.0, 38.60, 81.65, 90.9, 62, 18.7, 32.13090, 34.69540, 3.8122, 34.6954, 32.1309, 70.40, 2.1684, 1458.43, 343.30, 323.2, 18.04, 19.7, 52
2008/04/18, 00:25:43, 1596.00, 0.00, -12.35, -11.60, 1006.0, 78.1735600, 4.1826880, , 148.30, 1.22, 261.30, 1006.43, 1.40, 0.0, 38.60, 81.69, 91.0, 70, 16.0, 32.12560, 34.69780, 3.8040, 34.6978, 32.1256, 70.80, 2.1750, 1458.46, 334.70, 328.2, 18.25, 17.4, 52
2008/04/18, 00:26:43, 1569.00, 0.00, -12.22, -11.60, 1006.2, 78.1729920, 4.1836980, , 147.60, 1.55, 262.90, 1006.66, 1.60, 0.0, 38.60, 81.75, 91.4, 60, 17.4, 32.13510, 34.69750, 3.8149, 34.6975, 32.1351, 70.40, 2.1844, 1458.50, 342.80, 321.7, 17.50, 18.8, 52
2008/04/18, 00:27:43, 1524.00, 0.00, -12.02, -11.40, 1005.6, 78.1724470, 4.1847070, , 151.80, 1.56, 261.90, 1006.36, 1.90, 0.0, 38.60, 81.82, 91.8, 70, 15.4, 32.12660, 34.69920, 3.8039, 34.6992, 32.1266, 70.80, 2.1939, 1458.54, 335.60, 330.5, 17.36, 17.1, 52
2008/04/18, 00:28:43, 1561.00, 0.00, -12.08, -11.40, 1006.2, 78.1719020, 4.1854730, , 181.60, 2.90, 262.60, 1006.65, 1.70, 0.0, 38.60, 81.89, 91.3, 70, 18.4, 32.15610, 34.69880, 3.8373, 34.6988, 32.1561, 70.80, 2.2021, 1458.58, 340.10, 331.7, 18.06, 20.0, 52
2008/04/18, 00:29:43, 1535.00, 0.00, -12.27, -11.60, 1006.2, 78.1713430, 4.1860380, , 179.50, 4.00, 264.30, 1006.76, 1.60, 0.0, 38.60, 81.62, 90.6, 66, 17.7, 32.13230, 34.70000, 3.8094, 34.7000, 32.1323, 70.80, 2.2089, 1458.61, 344.40, 330.0, 18.81, 19.9, 52
2008/04/18, 00:30:43, 1486.00, 0.00, -12.33, -11.60, 1005.9, 78.1707830, 4.1865230, , 169.00, 2.63, 260.90, 1006.72, 1.80, 0.0, 38.60, 81.50, 91.2, 70, 15.7, 32.15060, 34.70110, 3.8289, 34.7011, 32.1506, 70.80, 2.2149, 1458.64, 336.20, 330.2, 18.40, 16.5, 52
2008/04/18, 00:31:43, 1476.00, 0.00, -12.13, -11.50, 1005.9, 78.1702480, 4.1869400, , 191.20, 1.07, 262.20, 1006.55, 1.80, 0.0, 38.60, 81.55, 91.6, 66, 18.2, 32.14590, 34.70500, 3.8200, 34.7050, 32.1459, 70.80, 2.2182, 1458.65, 342.00, 329.1, 16.93, 19.4, 52
2008/04/18, 00:32:43, 1467.00, 0.00, -12.02, -11.40, 1005.9, 78.1696750, 4.1874570, , 141.50, 2.16, 262.50, 1006.96, 2.20, 0.0, 38.60, 81.67, 92.1, 75, 16.6, 32.15670, 34.70500, 3.8321, 34.7050, 32.1567, 70.40, 2.2211, 1458.67, 339.60, 334.5, 18.05, 16.2, 52
2008/04/18, 00:33:43, 1457.00, 0.00, -12.05, -11.30, 1005.8, 78.1691230, 4.1876680, , 172.20, 1.25, 261.50, 1006.57, 2.00, 0.0, 38.60, 82.02, 91.9, 70, 15.9, 32.15970, 34.70620, 3.8344, 34.7062, 32.1597, 70.80, 2.2234, 1458.68, 345.10, 330.7, 18.51, 17.0, 52
2008/04/18, 00:34:43, 1447.00, 0.00, -12.27, -11.50, 1006.2, 78.1685630, 4.1871730, , 206.20, 1.66, 262.50, 1006.69, 1.70, 0.0, 38.60, 81.67, 91.1, 72, 18.2, 32.16500, 34.70880, 3.8379, 34.7088, 32.1650, 70.40, 2.2257, 1458.69, 345.20, 335.3, 17.70, 18.9, 52
2008/04/18, 00:35:43, 1436.00, 0.00, -12.05, -11.40, 1006.1, 78.1680330, 4.1861730, , 244.40, 1.64, 262.20, 1006.84, 1.90, 0.0, 38.60, 81.87, 91.0, 66, 15.1, 32.17890, 34.70860, 3.8537, 34.7086, 32.1789, 70.10, 2.2281, 1458.70, 341.10, 330.6, 18.00, 16.1, 52
2008/04/18, 00:36:43, 1429.00, 0.00, -12.08, -11.40, 1005.8, 78.1675130, 4.1847220, , 179.80, 1.94, 263.40, 1007.13, 2.10, 0.0, 38.60, 81.69, 91.9, 62, 16.8, 32.18310, 34.70980, 3.8573, 34.7098, 32.1831, 70.40, 2.2292, 1458.71, 340.80, 324.1, 16.82, 16.9, 52
2008/04/18, 00:37:43, 1420.00, 0.00, -11.99, -11.40, 1006.0, 78.1670550, 4.1841980, , 262.80, 1.50, 259.30, 1006.98, 1.80, 0.0, 38.60, 81.84, 90.7, 61, 16.8, 32.19300, 34.71050, 3.8678, 34.7105, 32.1930, 70.40, 2.2301, 1458.71, 333.50, 322.9, 16.48, 17.9, 52
2008/04/18, 00:38:43, 1419.00, 0.00, -12.13, -11.50, 1006.0, 78.1665570, 4.1848820, , 177.70, 1.23, 261.00, 1006.83, 2.10, 0.0, 38.60, 81.72, 90.9, 68, 17.6, 32.20550, 34.70830, 3.8840, 34.7083, 32.2055, 70.80, 2.2307, 1458.72, 335.20, 328.4, 17.30, 18.7, 52
2008/04/18, 00:39:44, 1418.00, 0.00, -11.82, -11.30, 1006.0, 78.1660230, 4.1865430, , 140.90, 4.99, 260.40, 1006.90, 2.10, 0.0, 38.60, 81.84, 91.2, 73, 15.7, 32.22050, 34.71200, 3.8973, 34.7120, 32.2205, 70.10, 2.2315, 1458.72, 339.50, 325.5, 19.90, 16.5, 52
2008/04/18, 00:40:43, 1417.00, 0.00, -12.13, -11.40, 1006.3, 78.1655470, 4.1885900, , 148.30, 2.27, 262.80, 1007.24, 2.20, 0.0, 38.60, 81.82, 91.8, 82, 12.5, 32.23040, 34.70980, 3.9106, 34.7098, 32.2304, 70.40, 2.2319, 1458.73, 349.60, 341.4, 16.80, 13.2, 52
2008/04/18, 00:41:43, 1416.00, 0.00, -11.71, -11.00, 1006.1, 78.1650570, 4.1903900, , 157.10, 1.92, 260.20, 1006.57, 2.50, 0.0, 38.60, 82.39, 93.1, 82, 15.4, 32.21890, 34.71100, 3.8965, 34.7110, 32.2189, 70.40, 2.2309, 1458.72, 349.20, 339.8, 15.40, 16.5, 52
2008/04/18, 00:42:43, 1416.00, 0.00, -12.05, -11.10, 1006.1, 78.1645500, 4.1917220, , 131.00, 1.88, 261.90, 1006.99, 1.80, 1.6, 38.63, 82.26, 90.9, 69, 18.3, 32.21620, 34.71010, 3.8942, 34.7101, 32.2162, 70.10, 2.2287, 1458.71, 346.00, 328.1, 16.64, 19.5, 52
2008/04/18, 00:43:43, 1417.00, 0.00, -12.02, -11.30, 1006.0, 78.1640570, 4.1941900, , 134.80, 4.35, 262.20, 1006.46, 1.90, 0.0, 38.63, 82.02, 90.8, 68, 16.7, 32.20730, 34.70970, 3.8846, 34.7097, 32.2073, 70.10, 2.2271, 1458.70, 340.40, 325.6, 19.76, 18.2, 52
2008/04/18, 00:44:44, 1419.00, 0.00, -11.85, -11.30, 1006.1, 78.1635980, 4.1970230, , 139.50, 2.57, 263.40, 1006.83, 2.40, 0.0, 38.63, 81.87, 91.1, 68, 14.7, 32.22420, 34.70950, 3.9038, 34.7095, 32.2242, 70.10, 2.2265, 1458.70, 341.80, 328.3, 17.54, 16.1, 52
2008/04/18, 00:45:44, 1420.00, 0.00, -11.66, -11.20, 1006.1, 78.1631270, 4.1993450, , 125.70, 1.13, 261.20, 1006.99, 2.50, 0.0, 38.63, 81.67, 92.5, 85, 16.1, 32.22730, 34.70960, 3.9072, 34.7096, 32.2273, 70.10, 2.2257, 1458.70, 344.10, 342.4, 15.55, 17.0, 52
2008/04/18, 00:46:43, 1422.00, 0.00, -12.02, -11.20, 1006.0, 78.1626180, 4.2005050, , 168.80, 3.43, 263.50, 1007.09, 1.90, 0.0, 38.63, 81.94, 91.1, 74, 15.0, 32.21310, 34.71140, 3.8896, 34.7114, 32.2131, 69.90, 2.2243, 1458.69, 350.80, 334.8, 18.91, 16.5, 52
2008/04/18, 00:47:43, 1424.00, 0.00, -11.49, -11.10, 1006.1, 78.1620980, 4.2013080, , 166.80, 1.63, 263.20, 1006.59, 2.10, 0.0, 38.63, 82.02, 92.3, 60, 17.9, 32.21300, 34.71130, 3.8896, 34.7113, 32.2130, 69.90, 2.2235, 1458.69, 342.50, 321.4, 17.07, 17.9, 52
2008/04/18, 00:48:43, 1426.00, 0.00, -11.69, -11.10, 1006.1, 78.1615630, 4.2020450, , 179.00, 4.56, 263.20, 1007.08, 2.40, 0.0, 38.63, 82.11, 92.0, 75, 15.5, 32.21670, 34.71090, 3.8941, 34.7109, 32.2167, 70.10, 2.2249, 1458.69, 344.80, 334.8, 18.62, 16.0, 52
2008/04/18, 00:49:43, 1429.00, 0.00, -11.63, -11.10, 1006.3, 78.1610220, 4.2028730, , 145.20, 1.93, 262.40, 1006.68, 2.50, 0.0, 38.63, 82.06, 92.4, 72, 16.9, 32.22640, 34.71110, 3.9048, 34.7111, 32.2264, 69.90, 2.2255, 1458.70, 344.50, 333.3, 15.90, 18.0, 52
2008/04/18, 00:50:43, 1432.00, 0.00, -11.99, -11.20, 1006.4, 78.1605120, 4.2036100, , 191.90, 1.81, 262.20, 1006.89, 2.20, 0.0, 38.63, 81.82, 90.9, 61, 17.3, 32.21790, 34.71040, 3.8959, 34.7104, 32.2179, 69.90, 2.2255, 1458.70, 342.40, 323.0, 17.59, 18.3, 52
2008/04/18, 00:51:43, 1436.00, 0.00, -11.74, -11.20, 1006.0, 78.1599350, 4.2042920, , 193.40, 3.06, 262.50, 1006.65, 2.60, 0.0, 38.63, 81.77, 91.3, 79, 17.4, 32.21250, 34.71030, 3.8899, 34.7103, 32.2125, 70.40, 2.2242, 1458.69, 342.50, 340.8, 19.11, 18.9, 52
2008/04/18, 00:52:43, 1439.00, 0.00, -12.08, -11.40, 1006.3, 78.1593700, 4.2049970, , 95.60, 1.18, 263.60, 1007.16, 2.70, 0.0, 38.63, 81.42, 91.5, 76, 14.3, 32.21620, 34.71130, 3.8932, 34.7113, 32.2162, 69.90, 2.2226, 1458.68, 347.00, 337.2, 16.67, 15.2, 52
2008/04/18, 00:53:43, 1442.00, 0.00, -11.63, -11.00, 1005.8, 78.1588250, 4.2061000, , 140.20, 2.31, 259.00, 1006.67, 3.40, 0.0, 38.63, 82.06, 92.1, 90, 17.8, 32.21090, 34.71110, 3.8874, 34.7111, 32.2109, 70.10, 2.2218, 1458.68, 343.30, 346.1, 17.51, 18.5, 52
2008/04/18, 00:54:43, 1445.00, 0.00, -11.80, -11.00, 1006.1, 78.1583500, 4.2075550, , 148.50, 2.64, 262.50, 1006.87, 2.80, 0.0, 38.63, 82.04, 91.6, 74, 14.7, 32.20760, 34.71140, 3.8834, 34.7114, 32.2076, 69.90, 2.2218, 1458.68, 353.20, 334.2, 17.92, 16.2, 52
2008/04/18, 00:55:43, 1450.00, 0.00, -11.60, -11.10, 1005.9, 78.1578450, 4.2091720, , 161.20, 1.81, 261.50, 1006.72, 3.00, 0.0, 38.63, 81.89, 91.9, 77, 17.8, 32.21040, 34.71160, 3.8863, 34.7116, 32.2104, 69.90, 2.2226, 1458.68, 346.60, 337.8, 16.93, 20.1, 52
2008/04/18, 00:56:43, 1455.00, 0.00, -12.08, -11.20, 1006.0, 78.1573070, 4.2106700, , 121.50, 0.70, 260.10, 1006.48, 3.60, 0.0, 38.63, 81.82, 90.9, 87, 15.7, 32.20080, 34.71190, 3.8753, 34.7119, 32.2008, 69.90, 2.2231, 1458.69, 347.20, 343.6, 17.87, 17.5, 52
2008/04/18, 00:57:43, 1462.00, 0.00, -11.96, -11.30, 1005.9, 78.1567420, 4.2122120, , 143.70, 2.45, 262.90, 1006.81, 3.40, 0.0, 38.63, 81.33, 90.5, 82, 14.7, 32.20950, 34.71160, 3.8853, 34.7116, 32.2095, 69.90, 2.2232, 1458.68, 355.50, 339.4, 18.36, 15.2, 52
2008/04/18, 00:58:43, 1469.00, 0.00, -12.10, -11.40, 1006.2, 78.1562280, 4.2137830, , 162.80, 1.66, 262.90, 1006.99, 2.70, 0.0, 38.63, 81.03, 90.4, 70, 14.5, 32.20810, 34.71040, 3.8849, 34.7104, 32.2081, 69.60, 2.2231, 1458.69, 348.10, 331.3, 16.50, 15.4, 52
2008/04/18, 00:59:43, 0.00, 0.00, -11.91, -11.30, 1006.1, 78.1557120, 4.2144330, , 192.20, 1.95, 264.60, 1007.10, 2.90, 0.0, 38.63, 81.35, 91.0, 70, 15.4, 32.21860, 34.71090, 3.8962, 34.7109, 32.2186, 69.60, 2.2225, 1458.68, 346.80, 334.3, 16.90, 15.3, 52
2008/04/18, 01:00:43, 1482.00, 0.00, -11.71, -11.20, 1006.6, 78.1552170, 4.2137850, , 265.60, 1.41, 264.30, 1006.90, 2.90, 0.0, 38.63, 81.42, 92.4, 68, 15.6, 32.20810, 34.71160, 3.8838, 34.7116, 32.2081, 69.60, 2.2216, 1458.68, 349.60, 333.1, 15.83, 16.9, 52
2008/04/18, 01:01:43, 1486.00, 0.00, -11.85, -11.10, 1006.2, 78.1547520, 4.2123000, , 199.40, 1.32, 261.10, 1007.26, 2.30, 0.0, 38.63, 81.69, 91.6, 53, 17.5, 32.20430, 34.71190, 3.8792, 34.7119, 32.2043, 69.60, 2.2213, 1458.68, 339.90, 316.0, 16.18, 17.6, 52
2008/04/18, 01:02:43, 1492.00, 0.00, -11.80, -11.10, 1005.9, 78.1542580, 4.2105220, , 243.60, 3.13, 263.40, 1006.97, 2.70, 0.0, 38.63, 81.65, 91.2, 57, 19.9, 32.20000, 34.71020, 3.8759, 34.7102, 32.2000, 69.20, 2.2207, 1458.68, 338.90, 323.3, 16.98, 20.1, 52
2008/04/18, 01:03:43, 1545.00, 0.00, -11.96, -11.20, 1006.3, 78.1537950, 4.2084950, , 278.50, 1.95, 261.40, 1007.19, 3.00, 0.0, 38.63, 81.50, 90.5, 72, 15.1, 32.20670, 34.71140, 3.8824, 34.7114, 32.2067, 69.60, 2.2215, 1458.68, 335.20, 336.5, 17.06, 16.1, 52
2008/04/18, 01:04:43, 1508.00, 0.00, -12.02, -11.40, 1006.4, 78.1532850, 4.2062870, , 204.10, 2.68, 262.50, 1007.33, 2.70, 0.0, 38.63, 81.08, 90.4, 75, 15.5, 32.21620, 34.71120, 3.8932, 34.7112, 32.2162, 69.90, 2.2220, 1458.68, 347.30, 338.2, 18.27, 14.9, 52
2008/04/18, 01:05:44, 1516.00, 0.00, -11.66, -11.30, 1005.9, 78.1528170, 4.2041880, , 216.80, 2.84, 262.60, 1007.09, 2.60, 0.0, 38.63, 81.20, 92.2, 62, 18.2, 32.19560, 34.71130, 3.8700, 34.7113, 32.1956, 70.10, 2.2230, 1458.69, 344.60, 324.9, 16.76, 18.4, 52
2008/04/18, 01:06:43, 1528.00, 0.00, -12.02, -11.30, 1006.2, 78.1523370, 4.2019370, , 221.60, 2.90, 261.60, 1007.08, 2.30, 0.0, 38.63, 81.25, 91.0, 68, 15.0, 32.20950, 34.71090, 3.8860, 34.7109, 32.2095, 69.90, 2.2252, 1458.69, 340.90, 334.9, 17.37, 15.8, 52
2008/04/18, 01:07:43, 1532.00, 0.00, -11.96, -11.30, 1006.3, 78.1518170, 4.1994620, , 238.80, 3.13, 263.20, 1006.65, 2.50, 0.0, 38.63, 81.30, 90.8, 69, 19.7, 32.19290, 34.71110, 3.8672, 34.7111, 32.1929, 70.10, 2.2282, 1458.71, 345.40, 332.8, 17.99, 19.6, 52
2008/04/18, 01:08:43, 0.00, 0.00, -11.99, -11.30, 1006.7, 78.1513020, 4.1964280, , 223.50, 3.58, 261.50, 1007.35, 3.00, 0.0, 38.63, 81.42, 91.1, 57, 16.9, 32.18980, 34.71170, 3.8631, 34.7117, 32.1898, 69.90, 2.2306, 1458.72, 342.80, 320.3, 19.30, 15.5, 52
2008/04/18, 01:09:43, 1547.00, 0.00, -11.96, -11.30, 1006.1, 78.1508500, 4.1933100, , 217.60, 3.89, 262.20, 1007.34, 3.00, 0.0, 38.63, 81.40, 90.6, 73, 18.7, 32.18170, 34.71210, 3.8537, 34.7121, 32.1817, 69.90, 2.2322, 1458.73, 338.70, 337.2, 18.96, 18.6, 52
2008/04/18, 01:10:43, 1541.00, 0.00, -11.85, -11.30, 1006.3, 78.1504050, 4.1902150, , 232.80, 1.30, 259.10, 1007.05, 3.10, 0.0, 38.63, 81.35, 91.0, 65, 18.9, 32.18620, 34.71200, 3.8588, 34.7120, 32.1862, 69.90, 2.2366, 1458.74, 336.80, 325.9, 18.39, 19.4, 52
2008/04/18, 01:11:43, 1538.00, 0.00, -11.94, -11.40, 1006.5, 78.1499280, 4.1876930, , 232.10, 3.06, 261.60, 1007.02, 3.30, 0.0, 38.63, 81.10, 91.1, 73, 19.0, 32.17960, 34.71020, 3.8530, 34.7102, 32.1796, 69.60, 2.2403, 1458.76, 340.50, 336.6, 17.17, 19.7, 52
2008/04/18, 01:12:43, 1537.00, 0.00, -12.16, -11.40, 1006.5, 78.1494700, 4.1852920, , 254.10, 2.72, 262.00, 1007.20, 3.30, 0.0, 38.63, 81.15, 90.7, 64, 18.8, 32.22230, 34.71140, 3.8999, 34.7114, 32.2223, 69.20, 2.2426, 1458.77, 342.00, 330.5, 17.44, 19.5, 52
2008/04/18, 01:13:43, 1535.00, 0.00, -11.88, -11.30, 1006.4, 78.1489770, 4.1826320, , 237.90, 1.46, 260.80, 1007.35, 3.70, 0.0, 38.63, 81.30, 91.6, 60, 16.3, 32.18960, 34.71070, 3.8638, 34.7107, 32.1896, 69.20, 2.2438, 1458.78, 335.10, 324.2, 17.54, 15.3, 52
2008/04/18, 01:14:43, 1535.00, 0.00, -11.85, -11.30, 1006.4, 78.1485230, 4.1798080, , 238.10, 2.47, 261.70, 1007.40, 3.60, 0.0, 38.63, 81.35, 91.3, 64, 18.3, 32.18740, 34.71140, 3.8607, 34.7114, 32.1874, 69.60, 2.2446, 1458.78, 339.40, 327.3, 17.51, 18.7, 52
2008/04/18, 01:15:43, 1591.00, 0.00, -11.96, -11.30, 1006.4, 78.1480700, 4.1771370, , 212.00, 2.66, 256.90, 1007.20, 3.30, 0.0, 38.63, 81.25, 90.9, 68, 18.9, 32.20880, 34.71150, 3.8846, 34.7115, 32.2088, 69.60, 2.2433, 1458.78, 333.80, 327.9, 18.54, 18.8, 52
2008/04/18, 01:16:43, 1578.00, 0.00, -12.10, -11.40, 1006.4, 78.1475450, 4.1745000, , 218.60, 3.28, 254.70, 1007.29, 3.90, 0.0, 38.63, 81.03, 90.6, 76, 17.3, 32.19720, 34.71160, 3.8715, 34.7116, 32.1972, 69.60, 2.2419, 1458.77, 341.00, 330.6, 19.25, 17.4, 52
2008/04/18, 01:17:43, 1555.00, 0.00, -11.94, -11.40, 1006.7, 78.1470330, 4.1715930, , 237.80, 3.19, 253.80, 1007.44, 4.40, 0.0, 38.63, 80.75, 90.7, 78, 15.3, 32.19550, 34.71170, 3.8695, 34.7117, 32.1955, 69.90, 2.2407, 1458.76, 344.80, 335.8, 17.48, 15.8, 52
2008/04/18, 01:18:43, 1557.00, 0.00, -11.66, -11.20, 1006.6, 78.1465200, 4.1684930, , 225.90, 3.10, 254.20, 1007.28, 4.40, 0.0, 38.63, 81.03, 91.9, 80, 15.0, 32.19070, 34.71290, 3.8629, 34.7129, 32.1907, 69.90, 2.2383, 1458.75, 348.70, 335.6, 17.22, 16.1, 52
2008/04/18, 01:19:43, 0.00, 0.00, -11.88, -11.10, 1006.4, 78.1459870, 4.1650200, , 226.40, 4.18, 254.10, 1007.54, 4.10, 0.0, 38.63, 81.05, 91.0, 79, 15.5, 32.21090, 34.71090, 3.8876, 34.7109, 32.2109, 70.10, 2.2373, 1458.75, 349.40, 338.4, 17.08, 15.0, 52
2008/04/18, 01:20:43, 1542.00, 0.00, -11.60, -11.10, 1006.7, 78.1454550, 4.1612330, , 231.20, 3.88, 254.90, 1007.16, 4.70, 0.0, 38.63, 81.42, 91.3, 81, 15.3, 32.22020, 34.71190, 3.8971, 34.7119, 32.2202, 70.10, 2.2401, 1458.76, 351.10, 340.3, 17.33, 16.5, 52
2008/04/18, 01:21:43, 0.00, 0.00, -11.91, -11.10, 1006.8, 78.1448730, 4.1580770, , 205.00, 3.11, 254.10, 1007.36, 4.70, 0.0, 38.63, 81.35, 90.9, 84, 16.6, 32.20930, 34.71280, 3.8840, 34.7128, 32.2093, 70.10, 2.2466, 1458.79, 347.00, 340.7, 19.25, 16.9, 52
2008/04/18, 01:22:43, 1541.00, 0.00, -11.88, -11.30, 1006.9, 78.1442950, 4.1557620, , 204.10, 4.40, 254.00, 1007.68, 4.90, 0.0, 38.63, 81.00, 89.7, 83, 15.2, 32.20270, 34.71040, 3.8788, 34.7104, 32.2027, 69.90, 2.2541, 1458.82, 349.50, 337.2, 19.37, 16.3, 52
2008/04/18, 01:23:43, 1540.00, 0.00, -11.80, -11.20, 1006.4, 78.1438320, 4.1532500, , 247.90, 2.19, 254.30, 1007.25, 4.60, 0.0, 38.63, 80.81, 91.4, 89, 15.9, 32.20850, 34.71080, 3.8849, 34.7108, 32.2085, 70.10, 2.2619, 1458.85, 350.10, 347.5, 15.55, 17.0, 52
2008/04/18, 01:24:43, 1543.00, 0.00, -11.46, -11.10, 1006.6, 78.1433320, 4.1500320, , 232.70, 2.77, 252.80, 1007.18, 4.40, 0.0, 38.63, 80.88, 91.7, 77, 14.6, 32.23440, 34.70920, 3.9156, 34.7092, 32.2344, 69.90, 2.2720, 1458.90, 349.90, 334.0, 15.47, 13.8, 52
2008/04/18, 01:25:43, 1547.00, 0.00, -11.57, -10.90, 1006.6, 78.1427800, 4.1467880, , 243.40, 4.04, 256.10, 1007.30, 5.00, 0.0, 38.63, 81.28, 91.3, 72, 15.8, 32.20460, 34.70960, 3.8817, 34.7096, 32.2046, 69.60, 2.2818, 1458.94, 350.70, 331.8, 16.19, 16.4, 52
2008/04/18, 01:26:43, 0.00, 0.00, -11.46, -10.80, 1006.4, 78.1422220, 4.1432430, , 213.20, 3.85, 254.00, 1007.00, 4.30, 0.0, 38.63, 81.55, 91.7, 84, 17.0, 32.20280, 34.70750, 3.8817, 34.7075, 32.2028, 69.20, 2.2914, 1458.98, 347.00, 339.8, 17.94, 17.9, 52
2008/04/18, 01:27:43, 1618.00, 0.00, -11.32, -10.80, 1006.9, 78.1416720, 4.1397830, , 230.60, 4.09, 254.90, 1007.73, 3.40, 0.0, 38.63, 81.62, 92.1, 70, 15.7, 32.19890, 34.70660, 3.8781, 34.7066, 32.1989, 69.20, 2.3008, 1459.02, 350.60, 326.1, 16.49, 15.7, 52
2008/04/18, 01:28:43, 1581.00, 0.00, -11.57, -10.70, 1006.5, 78.1411570, 4.1366550, , 239.30, 2.82, 253.80, 1007.42, 3.40, 0.0, 38.63, 81.72, 91.2, 72, 15.9, 32.20880, 34.70900, 3.8870, 34.7090, 32.2088, 69.20, 2.3091, 1459.06, 338.60, 330.2, 16.67, 15.9, 52
2008/04/18, 01:29:44, 1590.00, 0.00, -11.21, -10.80, 1007.0, 78.1406720, 4.1335550, , 259.50, 1.87, 253.70, 1007.68, 3.00, 0.0, 38.63, 81.82, 91.8, 77, 14.6, 32.19610, 34.71190, 3.8700, 34.7119, 32.1961, 70.10, 2.3173, 1459.09, 340.30, 330.8, 15.54, 14.8, 52
2008/04/18, 01:30:43, 1599.00, 0.00, -11.32, -10.70, 1006.7, 78.1401350, 4.1304680, , 258.10, 2.22, 254.40, 1008.10, 2.80, 0.0, 38.63, 82.09, 91.8, 66, 18.2, 32.20900, 34.71230, 3.8842, 34.7123, 32.2090, 71.10, 2.3251, 1459.13, 338.50, 324.4, 15.96, 18.8, 52